Terug naar catalogus

STARLINK-5050

ActiefCommunicatieVLEO
NORAD 53890·PAYLOAD·🇺🇸 United States

Gelanceerd Sep 24, 2022 vanaf Cape Canaveral Space Force Station

Loading…

Volgende Passages (komende 24 uur)

TLE

VersSource: CelesTrak SupGP

Epoch: Sep 15, 2026, 01:44 UTC

1 53890C 22119E   26258.07270833  .00029182  00000+0  93903-3 0  2589
2 53890  53.1576 149.0325 0001359  84.1097  80.0645 15.31666723    19

Volg STARLINK-5050 in realtime met AllMySat

Download on the App Store